Showing default

OPTUS D2, 32252

Orbit data source: Space-Track

OPTUS D2, 32252 is a payload satellite owned by SingTel Optus (AU) in GEO that was launched on Fri, 05 Oct 2007 UTC via an ARIANE 5GS launch vehicle from the French Guiana (FRGUI). Payload-class satellites include a variety of spacecraft equipped with specific instruments for various scientific and technological missions. These include communications satellites like Starlink; space stations such as the ISS; scientific satellites like the Hubble; Earth observation satellites from companies like Planet Labs, Umbra, and HawkEye 360; GPS; miniature CubeSats for education and research; and military/defense satellites.

Loading next visibility...
Identifier
32252, 2007-044A
Orbit
GEO
Country
Flag of AUAU / AUS
Related business
Manufacturer
OSC
Mission
Operational Commercial Communications
Bus & Motor
OSC STAR 2.4, BT-4
Mass
2,350 kg wet, 1,079 kg dry
Launch date (UTC)
2007-10-05 (18 years ago)
Launch vehicle
ARIANE 5GS
Launch site
French Guiana (FRGUI)
Object type
Payload
Rocket body
Debris
Shape & HBR
Box + 2 Pan, 11.2 m
Radar Cross Section
24.712 m², Large (>1 m²)

Expand to show TLE details & history
Last TLE update: 15 hours ago

TLE from 15 hours ago
0 OPTUS D2
1 32252U 07044A   25301.59269659  .00000065  00000-0  00000-0 0  9992
2 32252   1.4716  84.8713 0003261 135.0681 279.0461  0.99340237 66246
Epoch: 2025-10-28T14:13Z
TLE epoch observation values (Epoch: 2025-10-28T14:13:28.985Z)
Latitude
1.17605°
Longitude
-111.64481°
Altitude
36,046.957 km
Speed
3.065 km/s
True Right ascension
09h 15m 36s
True Declination
1° 10' 30"
Sunlit
Object was in daylight at epoch
Visualization orbit readout
Latitude
Unknown
Longitude
Unknown
Altitude
Unknown
Speed
Unknown
Apparent Right ascension
Unknown
Apparent Declination
Unknown
Sunlit
N/A
Visualization observer readout
Local Sidereal Time
00:29:40
Azimuth
Unknown
Elevation
Unknown
Doppler factor
Unknown
Orbital elements
Apogee altitude
36,064.679 km
Perigee altitude
36,037.007 km
Semi-major axis
42,428.98 km
Eccentricity
0.00033
Inclination
1.4716°
RAAN
84.8713°
Arg. of periapsis
135.0681°
True anomaly
279.00919°
Mean anomaly
279.0461°
Eccentric anomaly
279.02765°
Mean motion
0.24834 °/min
Orbital period
1,449.62 mins
BSTAR
0
Loading maneuver chart data...
Computing Atmospheric mass density...
Loading historical data...
Loading historical data...
Loading historical data...
Loading historical data...
Loading historical data...
Loading historical data...
Loading historical data...
Other satellites on launch #44 in the year 2007 (2007-10-05 UTC)

Documentation

Showing up to 5 results
|